Location: Oberkirch
(48.5323°N, 8.0787°E)
Time: 05:40:30
(UTC+00:00)

Cosmos 1802 Rocket - Pass Details

Date: 08 November 2025
Orbit: 953 x 1011 km, 82.9° (Epoch: 16 December)

Event Time Altitude Azimuth Distance (km) Brightness Sun altitude
Rises 05:03:09 0° 345° (NNW) 3,744 6.8 -13.7°
Reaches altitude 10° 05:05:49 10° 339° (NNW) 2,783 6.1 -13.3°
Maximum altitude 05:11:44 42° 272° (W) 1,388 4.4 -12.3°
Drops below altitude 10° 05:17:33 10° 203° (SSW) 2,730 6.2 -11.4°
Sets 05:20:10 0° 197° (SSW) 3,664 7.0 -11.0°
